STARLINK-11535, 62595

Orbit data source: Space-Track

STARLINK-11535, 62595 is a payload satellite owned by SpaceX/Seattle (US) in LEO that was launched on Mon, 13 Jan 2025 UTC via an FALCON 9 launch vehicle from the Air Force Eastern Test Range (AFETR). Payload-class satellites include a variety of spacecraft equipped with specific instruments for various scientific and technological missions. These include communications satellites like Starlink; space stations such as the ISS; scientific satellites like the Hubble; Earth observation satellites from companies like Planet Labs, Umbra, and HawkEye 360; GPS; miniature CubeSats for education and research; and military/defense satellites.

Loading next visibility...
Identifier
62595, 2025-008J
Orbit
LEO
Last TLE update
19 hours ago
Origin
Manufacturer
SpaceX/Seattle
Mission
Operational Commercial Communications
Bus & Motor
STARLINK V2M, Unknown motor
Mass
730 kg wet, ~700 kg dry
Launch date (UTC)
2025-01-13 (4 months ago)
Launch vehicle
FALCON 9
Launch site
Air Force Eastern Test Range (AFETR)
Object type
Payload
Rocket body
Debris
Shape & HBR
Box + 2 Pan, 29 m
Radar Cross Section
36.964 m², Large (>1 m²)

Expand to show TLE details & history

TLE from 19 hours ago
0 STARLINK-11535
1 62595U 25008J   25128.45910692  .00003981  00000-0  34552-4 0  9990
2 62595  43.0012 165.6133 0001273 258.9699 101.1025 15.70807452 19138
Epoch: 2025-05-08T11:01Z
Definitive object data (Epoch: 2025-05-08T11:01:06.837Z)
Latitude
-0.00007°
Longitude
133.80544°
Altitude
356.525 km
Speed
7.697 km/s
True Right ascension
11h 02m 27s
True Declination
0° 00' 00"
Sunlit
Object was in full shadow at TLE epoch
Visualization TLE readout
Latitude
-37.57466°
Longitude
4.07242°
Altitude
366.793 km
Speed
7.69 km/s
Apparent Right ascension
02h 26m 49s
Apparent Declination
-38° 32' 00"
Sunlit
Object is in daylight
Visualization observer readout
Local Sidereal Time
14:30:26
Azimuth
27.115° NE
Elevation
-88.451°
Doppler factor
1
Orbital elements
Apogee altitude
359.427 km
Perigee altitude
357.712 km
Semi-major axis
6,736.706 km
Eccentricity
0.0001273
Inclination
43.0012°
RAAN
165.6133°
Arg. of periapsis
258.9699°
True anomaly
101.11681°
Mean anomaly
101.1025°
Eccentric anomaly
101.10966°
Mean motion
3.92529 °/min
BSTAR
0.000034552
Orbital period
91.71 mins
Loading maneuver chart data...
Loading SW <> Apogee altitude chart data...
Loading historical data...
Loading historical data...
Loading historical data...
Loading historical data...
Loading historical data...
Loading historical data...
Loading historical data...

STARLINK-11535 Visibility forecast

Observer location: undefined°, undefined°

Span
Click to sort rows by Start time (UTC) header in descending order
Start Az.
Max El. time (UTC)
Max El. Az.
Max El.
End time (UTC)
End Az.
5 mins2025-05-09 07:07:36.892Z261.737° W2025-05-09 07:10:36.892Z33.072° NE40.635°2025-05-09 07:12:36.892Z67.968° E
4 mins2025-05-09 10:21:36.892Z284.105° WNW2025-05-09 10:22:36.892Z260.607° W43.768°2025-05-09 10:25:36.892Z112.679° SE
4 mins2025-05-10 06:00:36.892Z232.272° WSW2025-05-10 06:01:36.892Z178.016° S42.692°2025-05-10 06:04:36.892Z74.909° E
|